CAPE
1760 1549 1521 1629 1665 1688 1705 1801 1944 2067 2034 1904 1736 1409 1152 932 742 665 857 978 959 922 951 976 1002 1032 1186 1339 1364 1268 1067 1187 1207 1124 735 329 192 23 0 0 0 0 0 0 0 0 0 0 0 16 35 44 43 30 20 11 5 3 4 1 0 0 0
1916 1836 1692 1681 1754 1766 1787 1838 1986 2071 1929 1761 1576 1384 1096 844 732 681 853 971 959 969 1053 1106 1187 1310 1368 1320 1261 1128 1194 1246 1166 1088 769 464 262 108 0 0 0 0 0 0 0 0 0 0 0 0 8 12 27 29 17 10 8 6 4 1 2 0 0
1904 1907 1855 1797 1788 1865 1916 1948 1994 1988 1918 1716 1597 1381 1032 855 799 734 825 926 953 1023 1138 1246 1369 1532 1588 1410 1170 1141 1193 816 847 784 664 467 274 157 42 0 0 0 0 0 0 0 0 0 0 0 0 0 0 7 8 7 6 7 3 2 1 1 0
1884 1877 1880 1889 1919 1970 2010 1989 1957 1952 1830 1711 1644 1407 1152 1009 895 781 846 903 973 1093 1226 1384 1550 1598 1422 1178 1194 1212 1120 693 731 607 610 419 383 317 241 167 0 0 0 0 0 0 0 0 0 0 0 0 0 0 0 2 5 5 3 2 1 0 0
1841 1847 1910 1946 1993 2035 2013 1978 1917 1870 1793 1726 1700 1582 1232 992 907 823 866 959 1079 1235 1364 1476 1516 1446 1359 1217 1203 1246 1131 842 697 582 391 571 541 411 314 264 75 0 0 0 0 0 0 0 0 0 0 0 0 0 0 0 2 4 3 2 0 0 0
1814 1831 1856 1953 1976 2006 1984 1926 1873 1824 1766 1724 1720 1647 1307 937 866 832 886 996 1139 1364 1468 1516 1543 1600 1578 1568 1327 1311 943 678 664 834 802 467 546 414 400 278 100 0 0 0 0 0 0 0 0 0 0 0 0 0 0 0 0 0 2 2 0 0 0
1790 1809 1846 1865 1926 1943 1908 1864 1808 1768 1726 1684 1665 1609 1390 1074 872 785 804 940 1084 1298 1477 1590 1639 1604 1259 1158 917 1254 1092 642 650 714 787 731 505 389 334 224 0 0 0 0 0 0 0 0 0 0 0 0 0 0 0 0 0 0 0 0 0 0 0
1726 1759 1808 1816 1846 1865 1849 1795 1749 1700 1663 1634 1594 1586 1491 1356 1159 980 914 870 1038 1177 1428 1435 1447 1405 1372 985 1097 1220 1165 707 553 616 773 600 338 331 280 47 0 0 0 0 0 0 0 0 0 0 0 0 0 0 0 0 0 0 0 0 0 0 0
1645 1673 1674 1776 1791 1788 1782 1742 1709 1663 1618 1580 1553 1519 1511 1501 1466 1410 1282 1110 966 1082 1040 1102 1156 1134 1073 1010 922 1339 1330 652 438 674 698 372 257 291 167 0 0 0 0 0 0 0 0 0 0 0 0 0 0 0 0 0 0 0 0 0 0 0 0
1774 1858 1785 1708 1756 1746 1713 1686 1638 1603 1555 1533 1538 1534 1551 1566 1541 1486 1385 1189 985 900 1026 1011 1091 1169 1152 931 971 1218 1259 803 692 790 633 301 276 236 125 0 0 0 0 0 0 0 0 0 0 0 0 0 0 0 0 0 0 0 0 0 0 0 0
1876 1922 1798 1699 1705 1691 1678 1649 1619 1589 1547 1549 1576 1613 1648 1668 1633 1558 1396 1224 980 1015 1036 1018 1071 1111 1277 1112 1072 1118 1238 1006 913 828 519 321 301 204 150 0 0 0 0 0 0 0 0 0 0 0 0 0 0 0 0 0 0 0 0 0 0 0 0
1979 1943 1800 1667 1670 1667 1652 1640 1623 1539 1591 1607 1678 1750 1777 1694 1622 1506 1394 998 834 1105 1186 1095 986 891 874 800 918 1007 1010 927 882 717 443 336 267 228 155 0 0 0 0 0 0 0 0 0 0 0 0 0 0 0 0 0 0 0 0 0 0 0 0
2033 1923 1766 1683 1663 1661 1660 1634 1626 1602 1602 1704 1669 1691 1590 1511 1498 1423 1349 1286 1116 884 892 906 750 890 1068 928 662 697 723 826 760 604 409 300 284 265 147 0 0 0 0 0 0 0 0 0 0 0 0 0 0 0 0 0 0 0 0 0 0 0 0
2011 1890 1735 1661 1632 1627 1630 1638 1648 1653 1644 1659 1616 1480 1367 1346 1356 1340 1335 1356 1362 1185 974 1146 1079 1009 877 777 514 406 411 416 318 427 385 337 357 267 83 0 0 0 0 0 0 0 0 0 0 0 0 0 0 0 0 0 0 0 0 0 0 0 0
1984 1760 1623 1538 1612 1622 1648 1681 1683 1701 1713 1789 1758 1611 1448 1417 1448 1403 1370 1354 1383 1086 1044 1112 984 928 952 731 467 333 330 266 218 227 363 428 384 145 0 0 0 0 0 0 0 0 0 0 0 0 0 0 0 0 0 0 0 0 0 0 0 0 0
2004 1800 1676 1616 1572 1638 1672 1703 1723 1759 1766 1791 1714 1669 1719 1628 1556 1564 1472 1276 1160 1133 1106 970 840 833 893 777 524 384 340 261 203 206 237 270 168 22 0 0 0 0 0 0 0 0 0 0 0 0 0 0 0 0 0 0 0 0 0 0 0 0 0
2027 1869 1753 1692 1635 1687 1714 1772 1796 1811 1859 1836 1628 1456 1345 1285 1339 1425 1374 1189 1011 1018 1007 837 743 790 866 869 779 536 400 281 212 184 196 157 76 0 0 0 0 0 0 0 0 0 0 0 0 0 0 0 0 0 0 0 0 0 0 0 0 0 0
2065 1941 1826 1746 1672 1732 1776 1802 1797 1779 1758 1780 1656 1404 1420 1379 1347 1353 1342 1164 1033 952 918 819 716 750 816 696 580 540 504 453 301 119 126 64 25 0 0 0 0 0 0 0 0 0 0 0 0 0 0 0 0 0 0 0 0 0 0 0 0 0 0
2126 2015 1903 1818 1737 1775 1789 1787 1758 1706 1682 1652 1614 1513 1367 1332 1284 1254 1220 1137 962 600 665 694 723 738 764 748 510 263 433 445 254 7 35 21 0 0 0 0 0 0 0 0 0 0 0 0 0 0 0 0 0 0 0 0 0 0 0 0 0 0 0
2192 2077 1950 1909 1829 1776 1775 1736 1698 1668 1589 1490 1389 1299 1206 1251 1255 1170 1114 986 784 627 513 568 616 607 530 388 451 546 457 290 4 22 14 1 0 0 0 0 0 0 0 0 0 0 0 0 0 0 0 0 0 0 0 0 0 0 0 0 0 0 0
2111 2038 1985 1959 1850 1814 1782 1768 1704 1646 1548 1418 1364 1260 1160 1121 1010 866 702 611 487 443 400 408 427 380 361 423 372 295 302 19 0 8 7 0 0 0 0 0 0 0 0 0 0 0 0 0 0 0 0 0 0 0 0 0 0 0 0 0 0 0 0
2063 2024 1988 1971 1895 1813 1848 1805 1732 1630 1493 1378 1333 1188 1071 1024 927 681 517 437 383 385 302 247 223 216 117 102 84 98 34 14 30 24 9 0 0 0 0 0 0 0 0 0 0 0 0 0 0 0 0 0 0 0 0 0 0 0 0 0 0 0 0
1919 1918 1932 1958 1939 1893 1839 1760 1668 1559 1511 1445 1314 1162 1024 826 663 562 358 322 267 251 259 248 201 179 102 21 115 36 14 38 39 23 8 0 0 0 0 0 0 0 0 0 0 0 0 0 0 0 0 0 0 0 0 0 0 0 0 0 0 0 0
1862 1896 1902 1892 1935 1917 1761 1568 1446 1521 1582 1569 1469 1236 840 653 624 467 245 245 254 208 144 140 147 135 122 58 26 29 21 16 11 7 0 0 0 0 0 0 0 0 0 0 0 0 0 0 0 0 0 0 0 0 0 0 0 0 0 0 0 0 0
1719 1747 1754 1807 1803 1775 1617 1408 1403 1559 1560 1521 1394 953 562 578 574 477 257 261 240 43 106 1 25 38 25 0 2 7 0 4 11 5 0 0 0 0 0 0 0 0 0 0 0 0 0 0 0 0 0 0 0 0 0 0 0 0 0 0 0 0 0
1402 1434 1524 1661 1713 1735 1546 1427 1518 1509 1409 1347 1094 513 442 540 516 292 269 264 146 0 0 0 0 0 0 0 0 0 0 6 10 1 0 0 0 0 0 0 0 0 0 0 0 0 0 0 0 0 0 0 0 0 0 0 0 0 0 0 0 0 0
1347 1403 1531 1584 1621 1496 1364 1368 1499 1209 1196 1133 705 562 562 623 384 313 275 230 106 0 0 0 0 0 0 3 0 0 0 6 12 0 0 0 0 3 0 1 0 0 0 0 0 0 0 0 0 0 0 0 0 0 0 0 0 0 0 0 0 0 0
1464 1519 1598 1692 1487 1186 1391 1376 1398 1379 1171 756 557 537 528 470 331 308 298 221 120 0 0 0 0 0 0 4 24 10 1 5 0 0 0 0 0 0 0 0 0 0 0 0 0 0 0 0 0 0 0 0 0 0 0 0 0 0 0 0 0 0 0
1138 1391 1531 1626 1475 1189 1371 1268 1131 1079 658 559 596 579 500 332 316 270 276 146 85 11 1 0 2 37 18 10 14 12 7 0 0 0 0 0 0 0 0 0 0 0 0 0 0 0 0 0 0 0 0 0 0 0 0 0 0 0 0 0 0 0 0
1477 1197 1135 1390 1556 1387 1415 1108 871 773 583 564 612 564 368 316 286 325 314 245 168 84 60 12 1 2 11 11 0 0 0 0 0 0 0 0 0 0 0 0 0 0 0 0 0 0 0 0 0 0 0 0 0 0 0 0 0 0 0 0 0 0 0
1311 863 747 1101 1573 1442 1354 1169 849 701 608 732 805 465 225 270 282 303 326 228 125 106 74 42 22 12 23 41 19 7 7 6 1 0 0 0 0 0 0 0 0 0 0 0 0 0 0 0 0 0 0 0 0 0 0 0 0 0 0 0 0 0 0
813 697 1021 1451 1436 1397 1316 1038 828 823 911 871 656 253 312 347 288 346 235 138 64 46 47 44 39 65 41 59 51 19 2 11 10 6 10 7 4 0 0 0 0 0 0 0 0 0 0 0 0 1 0 2 4 0 0 0 0 0 0 0 0 0 0
702 950 1502 1426 1345 1439 1057 888 1114 1041 708 533 322 298 417 391 391 286 206 9 6 57 72 57 66 68 57 52 48 32 19 1 14 13 11 6 7 6 5 3 0 0 0 0 0 0 0 0 0 1 1 4 6 0 0 0 0 0 0 0 0 0 0
864 1256 1297 1251 1052 818 789 939 889 660 582 356 282 390 414 343 288 213 3 13 19 65 93 120 110 89 64 58 49 36 34 33 8 8 17 15 11 6 8 6 2 1 0 0 0 0 0 5 7 5 0 0 0 0 0 0 0 0 0 0 0 0 0
1212 1347 1186 890 706 655 826 864 803 623 318 245 335 367 397 338 262 8 34 52 37 54 73 100 142 109 80 59 47 40 29 12 8 22 30 21 23 20 6 2 1 0 0 0 0 0 0 0 0 0 0 0 0 0 0 0 0 0 0 0 0 0 0
1132 911 926 821 557 646 713 607 253 162 232 305 347 356 261 151 68 7 4 0 15 33 87 95 93 78 56 47 43 29 22 21 18 17 13 12 11 8 2 1 0 0 0 0 0 0 0 0 0 0 0 0 0 0 0 0 0 0 0 0 0 0 0
1000 1038 851 638 436 346 302 234 278 322 340 343 260 181 99 81 49 15 0 0 0 16 40 87 79 61 56 56 56 34 19 35 30 7 4 4 4 2 0 0 0 0 0 0 6 11 5 0 0 0 2 2 0 0 0 0 0 0 0 0 0 0 0
Wind_Speed
17 20 23 24 26 26 25 23 25 24 24 23 22 22 22 22 23 21 20 20 22 22 23 20 18 17 18 20 21 19 22 23 24 24 25 25 23 nan nan nan nan nan nan nan nan nan nan nan nan nan nan nan nan nan nan nan nan nan nan nan nan nan nan
18 21 24 25 24 24 22 22 23 23 23 23 23 24 23 23 23 22 21 21 22 22 21 20 18 19 18 20 22 23 22 23 22 23 26 23 22 21 nan nan nan nan nan nan nan nan nan nan nan nan nan nan nan nan nan nan nan nan nan nan nan nan nan
18 22 24 23 21 21 19 20 21 22 22 23 24 24 24 23 22 22 21 21 21 21 20 19 19 18 18 20 25 31 34 32 28 20 19 25 23 22 nan nan nan nan nan nan nan nan nan nan nan nan nan nan nan nan nan nan nan nan nan nan nan nan nan
17 21 21 19 19 18 17 18 20 21 21 22 23 23 23 22 21 21 20 20 20 20 20 20 20 21 23 26 27 30 27 28 29 23 18 25 25 22 22 21 nan nan nan nan nan nan nan nan nan nan nan nan nan nan nan nan nan nan nan nan nan nan nan
16 17 17 16 16 16 17 19 20 22 20 20 20 21 20 20 20 19 19 20 20 21 21 22 25 27 26 27 27 26 25 26 27 24 21 27 25 22 22 20 nan nan nan nan nan nan nan nan nan nan nan nan nan nan nan nan nan nan nan nan nan nan nan
14 15 14 14 15 16 18 21 21 19 19 18 18 19 19 19 19 20 20 20 21 22 25 28 29 29 27 27 28 29 28 25 23 24 24 24 23 21 21 21 nan nan nan nan nan nan nan nan nan nan nan nan nan nan nan nan nan nan nan nan nan nan nan
13 13 13 14 15 17 19 20 19 19 18 18 19 18 19 20 19 20 21 21 21 24 28 31 32 30 30 25 26 29 28 25 24 25 26 27 25 24 24 23 nan nan nan nan nan nan nan nan nan nan nan nan nan nan nan nan nan nan nan nan nan nan nan
12 13 14 15 17 18 17 18 17 17 17 17 17 17 20 20 20 21 21 21 23 27 30 31 29 29 31 31 24 25 29 29 26 28 28 28 27 25 24 nan nan nan nan nan nan nan nan nan nan nan nan nan nan nan nan nan nan nan nan nan nan nan nan
13 15 16 17 18 18 17 16 16 16 16 17 16 18 18 20 20 20 20 21 25 30 30 30 30 27 33 33 25 25 27 27 29 30 28 28 28 27 27 nan nan nan nan nan nan nan nan nan nan nan nan nan nan nan nan nan nan nan nan nan nan nan nan
15 16 16 18 19 17 15 14 15 15 16 17 16 17 18 18 18 18 19 21 25 28 29 31 30 28 31 31 27 27 27 27 30 32 29 28 28 28 28 nan nan nan nan nan nan nan nan nan nan nan nan nan nan nan nan nan nan nan nan nan nan nan nan
16 16 17 18 19 17 14 14 14 15 15 16 18 18 18 18 19 19 19 20 24 27 25 28 31 29 28 27 27 27 27 29 31 31 28 28 28 28 30 nan nan nan nan nan nan nan nan nan nan nan nan nan nan nan nan nan nan nan nan nan nan nan nan
16 16 17 19 18 16 15 14 14 14 16 18 20 21 17 17 19 19 19 23 27 26 20 25 31 32 28 27 25 26 27 28 29 28 26 28 28 30 31 nan nan nan nan nan nan nan nan nan nan nan nan nan nan nan nan nan nan nan nan nan nan nan nan
15 16 18 19 17 14 14 15 14 16 16 20 22 22 19 17 19 20 23 27 32 30 24 22 29 31 30 28 27 26 26 27 29 28 26 27 28 30 30 nan nan nan nan nan nan nan nan nan nan nan nan nan nan nan nan nan nan nan nan nan nan nan nan
16 18 18 16 15 14 14 15 15 16 19 21 23 20 18 18 19 21 25 28 31 31 28 24 27 31 31 31 28 28 30 30 30 29 28 28 28 29 nan nan nan nan nan nan nan nan nan nan nan nan nan nan nan nan nan nan nan nan nan nan nan nan nan
18 19 17 15 14 14 14 15 15 19 20 22 21 18 20 20 19 21 25 28 29 32 30 28 28 29 30 30 28 27 30 31 30 28 29 28 26 26 nan nan nan nan nan nan nan nan nan nan nan nan nan nan nan nan nan nan nan nan nan nan nan nan nan
20 19 16 14 13 14 14 15 18 20 22 20 16 19 21 21 20 21 25 27 30 31 31 30 29 30 30 31 30 29 30 30 29 31 31 29 28 nan nan nan nan nan nan nan nan nan nan nan nan nan nan nan nan nan nan nan nan nan nan nan nan nan nan
20 18 15 14 13 14 15 16 19 22 25 19 13 19 21 22 21 22 24 27 29 30 30 29 29 28 30 31 30 30 29 29 30 31 32 32 nan nan nan nan nan nan nan nan nan nan nan nan nan nan nan nan nan nan nan nan nan nan nan nan nan nan nan
19 18 16 15 14 15 15 17 19 23 24 20 16 18 20 22 23 22 23 27 29 30 29 29 28 27 27 27 29 30 29 29 30 32 35 nan nan nan nan nan nan nan nan nan nan nan nan nan nan nan nan nan nan nan nan nan nan nan nan nan nan nan nan
19 18 16 15 15 15 16 18 20 21 21 19 20 18 19 21 22 22 24 25 27 30 29 28 27 27 27 27 29 29 30 30 31 nan nan nan nan nan nan nan nan nan nan nan nan nan nan nan nan nan nan nan nan nan nan nan nan nan nan nan nan nan nan
20 18 16 16 17 17 17 19 20 20 18 21 23 20 19 22 22 23 24 25 25 27 29 29 27 26 26 25 27 29 32 34 nan nan nan nan nan nan nan nan nan nan nan nan nan nan nan nan nan nan nan nan nan nan nan nan nan nan nan nan nan nan nan
20 18 17 18 18 18 19 20 21 19 18 24 24 20 20 21 23 25 26 25 25 24 25 27 26 25 26 25 26 28 32 nan nan nan nan nan nan nan nan nan nan nan nan nan nan nan nan nan nan nan nan nan nan nan nan nan nan nan nan nan nan nan nan
21 19 19 20 20 20 20 22 22 20 19 24 24 21 20 22 24 26 27 26 25 25 27 27 26 22 23 25 nan nan nan nan nan nan nan nan nan nan nan nan nan nan nan nan nan nan nan nan nan nan nan nan nan nan nan nan nan nan nan nan nan nan nan
20 19 20 20 20 21 22 23 23 22 21 24 25 23 22 23 25 27 28 26 24 24 25 25 28 27 23 nan 29 nan nan nan nan nan nan nan nan nan nan nan nan nan nan nan nan nan nan nan nan nan nan nan nan nan nan nan nan nan nan nan nan nan nan
20 19 20 21 21 22 23 24 24 24 23 23 24 25 25 25 26 27 28 27 25 23 23 24 31 31 30 nan nan nan nan nan nan nan nan nan nan nan nan nan nan nan nan nan nan nan nan nan nan nan nan nan nan nan nan nan nan nan nan nan nan nan nan
20 20 21 21 22 23 24 24 25 26 24 23 23 25 25 25 27 28 28 27 25 nan 23 nan nan nan nan nan nan nan nan nan nan nan nan nan nan nan nan nan nan nan nan nan nan nan nan nan nan nan nan nan nan nan nan nan nan nan nan nan nan nan nan
21 21 21 22 23 24 25 25 26 27 25 23 24 24 24 26 27 29 29 28 26 nan nan nan nan nan nan nan nan nan nan nan nan nan nan nan nan nan nan nan nan nan nan nan nan nan nan nan nan nan nan nan nan nan nan nan nan nan nan nan nan nan nan
23 23 23 23 24 25 25 25 26 26 26 25 25 25 25 26 27 29 29 29 27 nan nan nan nan nan nan nan nan nan nan nan nan nan nan nan nan nan nan nan nan nan nan nan nan nan nan nan nan nan nan nan nan nan nan nan nan nan nan nan nan nan nan
25 25 24 24 24 25 26 27 27 27 26 26 26 26 26 27 28 28 30 29 29 nan nan nan nan nan nan nan nan nan nan nan nan nan nan nan nan nan nan nan nan nan nan nan nan nan nan nan nan nan nan nan nan nan nan nan nan nan nan nan nan nan nan
25 25 24 24 24 25 26 27 27 26 26 26 27 27 27 28 29 29 29 30 nan nan nan nan nan nan nan nan nan nan nan nan nan nan nan nan nan nan nan nan nan nan nan nan nan nan nan nan nan nan nan nan nan nan nan nan nan nan nan nan nan nan nan
26 25 24 24 24 26 27 27 27 26 26 27 28 28 28 28 29 30 30 30 30 nan nan nan nan nan nan nan nan nan nan nan nan nan nan nan nan nan nan nan nan nan nan nan nan nan nan nan nan nan nan nan nan nan nan nan nan nan nan nan nan nan nan
26 25 25 24 25 26 28 27 27 25 26 27 28 28 29 30 30 30 31 31 29 29 nan nan nan nan nan nan nan nan nan nan nan nan nan nan nan nan nan nan nan nan nan nan nan nan nan nan nan nan nan nan nan nan nan nan nan nan nan nan nan nan nan
27 26 26 27 28 28 28 28 27 26 26 27 28 29 30 31 31 31 30 30 nan nan nan nan nan nan nan nan nan nan nan nan nan nan nan nan nan nan nan nan nan nan nan nan nan nan nan nan nan nan nan nan nan nan nan nan nan nan nan nan nan nan nan
30 30 32 32 30 29 29 29 28 27 27 28 29 30 31 32 32 30 28 nan nan nan nan nan nan nan nan nan nan nan nan nan nan nan nan nan nan nan nan nan nan nan nan nan nan nan nan nan nan nan nan nan nan nan nan nan nan nan nan nan nan nan nan
33 34 34 33 31 32 30 29 29 29 29 29 31 32 33 33 32 30 nan nan nan nan nan 27 25 nan nan nan nan nan nan nan nan nan nan nan nan nan nan nan nan nan nan nan nan nan nan nan nan nan nan nan nan nan nan nan nan nan nan nan nan nan nan
36 36 36 34 32 33 30 30 30 30 29 30 32 34 34 33 32 nan nan nan nan nan nan 29 27 27 nan nan nan nan nan nan nan nan nan nan nan nan nan nan nan nan nan nan nan nan nan nan nan nan nan nan nan nan nan nan nan nan nan nan nan nan nan
37 37 36 34 34 34 33 33 33 33 32 32 34 36 35 34 nan nan nan nan nan nan nan nan nan nan nan nan nan nan nan nan nan nan nan nan nan nan nan nan nan nan nan nan nan nan nan nan nan nan nan nan nan nan nan nan nan nan nan nan nan nan nan
38 37 36 34 35 35 35 34 35 34 33 33 35 36 nan nan nan nan nan nan nan nan nan nan nan nan nan nan nan nan nan nan nan nan nan nan nan nan nan nan nan nan nan nan nan nan nan nan nan nan nan nan nan nan nan nan nan nan nan nan nan nan nan
Wind_Direction
264 263 264 264 266 271 279 285 284 286 291 295 295 293 294 296 298 301 299 293 293 298 299 299 300 298 288 275 274 274 271 277 286 290 288 284 279 nan nan nan nan nan nan nan nan nan nan nan nan nan nan nan nan nan nan nan nan nan nan nan nan nan nan
265 265 266 268 273 277 283 280 283 288 292 293 294 297 297 298 300 301 300 296 294 295 295 290 286 288 290 280 273 270 267 265 264 274 286 285 276 275 nan nan nan nan nan nan nan nan nan nan nan nan nan nan nan nan nan nan nan nan nan nan nan nan nan
262 261 266 272 276 278 285 286 287 287 291 293 295 297 298 299 299 298 299 300 300 297 292 287 280 279 278 275 263 254 248 249 248 249 276 285 278 273 nan nan nan nan nan nan nan nan nan nan nan nan nan nan nan nan nan nan nan nan nan nan nan nan nan
269 268 270 271 272 275 283 285 286 288 292 297 296 297 299 300 299 298 298 299 297 295 289 281 274 271 267 268 272 273 274 276 271 269 266 278 276 270 264 264 nan nan nan nan nan nan nan nan nan nan nan nan nan nan nan nan nan nan nan nan nan nan nan
275 272 278 280 281 286 285 283 282 286 293 294 297 297 300 303 302 300 298 293 292 288 285 278 270 265 266 270 274 276 270 263 266 270 272 277 277 263 257 257 nan nan nan nan nan nan nan nan nan nan nan nan nan nan nan nan nan nan nan nan nan nan nan
278 280 280 278 282 284 281 282 288 297 295 300 302 303 307 311 308 306 303 298 291 289 283 275 270 267 266 272 277 276 272 268 266 268 269 276 276 264 255 253 nan nan nan nan nan nan nan nan nan nan nan nan nan nan nan nan nan nan nan nan nan nan nan
279 278 272 276 278 277 282 293 302 306 308 313 310 315 314 314 316 317 312 306 296 288 282 276 276 277 275 272 274 277 280 269 262 265 266 270 264 253 253 259 nan nan nan nan nan nan nan nan nan nan nan nan nan nan nan nan nan nan nan nan nan nan nan
277 272 271 272 275 278 286 297 303 303 309 312 314 313 309 317 320 315 313 307 297 286 279 284 290 284 278 271 268 274 270 264 262 262 265 270 266 260 254 nan nan nan nan nan nan nan nan nan nan nan nan nan nan nan nan nan nan nan nan nan nan nan nan
264 265 265 266 270 281 294 301 306 309 312 309 308 305 311 313 316 317 311 305 294 285 287 292 296 289 279 282 278 273 272 265 267 266 264 265 266 264 260 nan nan nan nan nan nan nan nan nan nan nan nan nan nan nan nan nan nan nan nan nan nan nan nan
266 269 271 274 279 285 294 298 303 311 307 305 307 303 302 305 312 313 310 304 293 291 292 293 295 289 282 281 279 275 273 270 271 271 266 266 265 265 263 nan nan nan nan nan nan nan nan nan nan nan nan nan nan nan nan nan nan nan nan nan nan nan nan
270 271 270 274 278 284 288 291 294 297 306 305 297 293 300 315 322 322 312 303 294 292 295 287 285 288 283 277 274 274 273 274 273 267 263 265 268 265 264 nan nan nan nan nan nan nan nan nan nan nan nan nan nan nan nan nan nan nan nan nan nan nan nan
266 266 264 271 277 285 291 295 302 305 296 294 296 296 317 332 326 317 307 290 282 284 294 281 279 282 286 285 283 277 274 275 277 270 259 263 265 265 266 nan nan nan nan nan nan nan nan nan nan nan nan nan nan nan nan nan nan nan nan nan nan nan nan
266 265 266 274 280 287 293 295 299 295 303 302 294 309 342 323 303 307 302 299 297 303 306 302 292 294 297 296 286 271 267 271 273 268 260 257 261 263 266 nan nan nan nan nan nan nan nan nan nan nan nan nan nan nan nan nan nan nan nan nan nan nan nan
261 257 262 271 281 284 288 293 298 303 291 290 301 337 318 305 307 310 309 306 306 303 307 307 298 295 297 293 282 271 262 255 256 260 262 260 258 263 nan nan nan nan nan nan nan nan nan nan nan nan nan nan nan nan nan nan nan nan nan nan nan nan nan
254 255 264 270 277 281 286 293 296 288 294 297 329 328 314 310 310 311 313 313 310 305 309 308 303 299 296 293 288 280 272 268 268 267 266 268 268 266 nan nan nan nan nan nan nan nan nan nan nan nan nan nan nan nan nan nan nan nan nan nan nan nan nan
253 259 265 266 273 278 284 287 285 290 286 296 335 310 299 303 308 317 320 318 314 311 310 306 303 301 298 293 288 282 278 271 266 265 266 268 270 nan nan nan nan nan nan nan nan nan nan nan nan nan nan nan nan nan nan nan nan nan nan nan nan nan nan
256 259 262 263 271 274 279 281 281 283 285 309 327 292 303 308 315 323 325 322 320 316 314 312 307 303 300 295 288 284 280 272 265 265 265 264 nan nan nan nan nan nan nan nan nan nan nan nan nan nan nan nan nan nan nan nan nan nan nan nan nan nan nan
257 259 259 258 264 269 275 278 279 285 294 317 314 298 303 313 321 327 324 322 324 319 318 319 314 305 297 289 281 275 274 270 265 263 262 nan nan nan nan nan nan nan nan nan nan nan nan nan nan nan nan nan nan nan nan nan nan nan nan nan nan nan nan
256 259 260 259 266 273 274 276 278 281 299 307 293 298 308 313 319 320 322 326 323 319 321 322 315 305 296 287 281 278 273 270 263 nan nan nan nan nan nan nan nan nan nan nan nan nan nan nan nan nan nan nan nan nan nan nan nan nan nan nan nan nan nan
254 257 259 263 265 269 274 275 278 285 296 292 292 300 307 307 309 313 318 322 320 322 327 324 310 296 287 281 281 278 274 269 nan nan nan nan nan nan nan nan nan nan nan nan nan nan nan nan nan nan nan nan nan nan nan nan nan nan nan nan nan nan nan
253 255 256 260 266 269 270 273 276 282 288 283 289 298 303 304 304 308 310 313 317 322 318 317 314 295 280 277 272 268 266 nan nan nan nan nan nan nan nan nan nan nan nan nan nan nan nan nan nan nan nan nan nan nan nan nan nan nan nan nan nan nan nan
246 248 253 258 263 269 272 273 275 279 283 282 286 294 297 299 300 300 302 310 318 321 322 326 325 304 287 280 nan nan nan nan nan nan nan nan nan nan nan nan nan nan nan nan nan nan nan nan nan nan nan nan nan nan nan nan nan nan nan nan nan nan nan
249 250 253 259 265 270 272 275 277 277 277 278 284 291 292 292 296 299 301 304 312 319 323 329 331 323 304 nan 292 nan nan nan nan nan nan nan nan nan nan nan nan nan nan nan nan nan nan nan nan nan nan nan nan nan nan nan nan nan nan nan nan nan nan
247 249 253 258 264 270 273 276 278 278 279 281 286 288 292 295 296 297 300 305 311 317 321 326 328 323 314 nan nan nan nan nan nan nan nan nan nan nan nan nan nan nan nan nan nan nan nan nan nan nan nan nan nan nan nan nan nan nan nan nan nan nan nan
244 245 252 259 267 270 273 277 278 279 279 280 281 284 289 292 293 294 296 301 305 nan 315 nan nan nan nan nan nan nan nan nan nan nan nan nan nan nan nan nan nan nan nan nan nan nan nan nan nan nan nan nan nan nan nan nan nan nan nan nan nan nan nan
241 245 252 259 264 269 274 275 275 278 282 281 281 284 286 289 291 292 296 299 299 nan nan nan nan nan nan nan nan nan nan nan nan nan nan nan nan nan nan nan nan nan nan nan nan nan nan nan nan nan nan nan nan nan nan nan nan nan nan nan nan nan nan
237 242 250 258 265 270 273 275 276 277 278 279 282 282 285 289 289 292 293 293 295 nan nan nan nan nan nan nan nan nan nan nan nan nan nan nan nan nan nan nan nan nan nan nan nan nan nan nan nan nan nan nan nan nan nan nan nan nan nan nan nan nan nan
237 243 250 256 264 270 273 273 274 276 279 282 284 286 286 287 289 289 292 294 294 nan nan nan nan nan nan nan nan nan nan nan nan nan nan nan nan nan nan nan nan nan nan nan nan nan nan nan nan nan nan nan nan nan nan nan nan nan nan nan nan nan nan
241 246 252 259 265 270 274 278 280 278 278 278 280 283 285 287 290 292 293 294 nan nan nan nan nan nan nan nan nan nan nan nan nan nan nan nan nan nan nan nan nan nan nan nan nan nan nan nan nan nan nan nan nan nan nan nan nan nan nan nan nan nan nan
245 250 255 261 268 272 273 274 274 275 277 279 282 285 287 288 289 292 293 295 295 nan nan nan nan nan nan nan nan nan nan nan nan nan nan nan nan nan nan nan nan nan nan nan nan nan nan nan nan nan nan nan nan nan nan nan nan nan nan nan nan nan nan
251 253 258 263 267 268 269 270 274 276 277 278 281 284 285 285 288 292 295 296 297 298 nan nan nan nan nan nan nan nan nan nan nan nan nan nan nan nan nan nan nan nan nan nan nan nan nan nan nan nan nan nan nan nan nan nan nan nan nan nan nan nan nan
253 257 260 260 263 266 268 269 268 268 271 273 277 278 281 283 284 287 293 297 nan nan nan nan nan nan nan nan nan nan nan nan nan nan nan nan nan nan nan nan nan nan nan nan nan nan nan nan nan nan nan nan nan nan nan nan nan nan nan nan nan nan nan
255 257 258 258 259 261 261 262 265 266 266 269 273 275 277 280 285 288 290 nan nan nan nan nan nan nan nan nan nan nan nan nan nan nan nan nan nan nan nan nan nan nan nan nan nan nan nan nan nan nan nan nan nan nan nan nan nan nan nan nan nan nan nan
257 255 257 259 260 259 259 260 261 262 264 265 269 272 275 277 280 282 nan nan nan nan nan 296 299 nan nan nan nan nan nan nan nan nan nan nan nan nan nan nan nan nan nan nan nan nan nan nan nan nan nan nan nan nan nan nan nan nan nan nan nan nan nan
257 257 256 257 259 260 259 260 260 261 263 267 270 272 273 274 276 nan nan nan nan nan nan 300 299 309 nan nan nan nan nan nan nan nan nan nan nan nan nan nan nan nan nan nan nan nan nan nan nan nan nan nan nan nan nan nan nan nan nan nan nan nan nan
255 253 255 257 260 260 259 259 259 261 264 267 269 271 273 274 nan nan nan nan nan nan nan nan nan nan nan nan nan nan nan nan nan nan nan nan nan nan nan nan nan nan nan nan nan nan nan nan nan nan nan nan nan nan nan nan nan nan nan nan nan nan nan
252 252 254 254 256 258 260 261 262 263 266 268 268 270 nan nan nan nan nan nan nan nan nan nan nan nan nan nan nan nan nan nan nan nan nan nan nan nan nan nan nan nan nan nan nan nan nan nan nan nan nan nan nan nan nan nan nan nan nan nan nan nan nan